TimeCST,TemperatureF,Dew PointF,Humidity,Sea Level PressureIn,VisibilityMPH,Wind Direction,Wind SpeedMPH,Gust SpeedMPH,PrecipitationIn,Events,Conditions,WindDirDegrees,DateUTC
12:05 AM,17.6,10.4,73,30.00,10.0,NNW,18.4,28.8,N/A,,Overcast,340,2013-12-29 06:05:00
12:53 AM,15.1,8.1,74,30.08,10.0,North,21.9,27.6,N/A,,Overcast,350,2013-12-29 06:53:00
1:53 AM,12.9,5.0,71,30.13,10.0,North,15.0,25.3,N/A,,Overcast,350,2013-12-29 07:53:00
2:53 AM,10.9,1.9,67,30.16,10.0,NNW,20.7,29.9,N/A,,Overcast,340,2013-12-29 08:53:00
3:53 AM,8.1,-0.9,67,30.18,10.0,North,13.8,26.5,N/A,,Overcast,350,2013-12-29 09:53:00
4:53 AM,6.1,-2.9,67,30.21,10.0,NNW,21.9,-,N/A,,Overcast,340,2013-12-29 10:53:00
5:53 AM,3.9,-5.1,66,30.26,10.0,NNW,16.1,23.0,N/A,,Overcast,340,2013-12-29 11:53:00
6:53 AM,-0.0,-8.0,69,30.30,10.0,NNW,15.0,24.2,N/A,,Mostly Cloudy,330,2013-12-29 12:53:00
7:12 AM,-0.4,-9.4,66,30.26,10.0,NNW,16.1,-,N/A,,Partly Cloudy,330,2013-12-29 13:12:00
7:53 AM,-2.9,-11.0,68,30.32,10.0,NNW,11.5,-,N/A,,Clear,330,2013-12-29 13:53:00
8:53 AM,-4.0,-13.0,65,30.34,10.0,NNW,13.8,23.0,N/A,,Mostly Cloudy,330,2013-12-29 14:53:00
9:53 AM,-4.0,-15.0,59,30.36,10.0,NW,16.1,-,N/A,,Clear,320,2013-12-29 15:53:00
10:53 AM,-2.9,-16.1,54,30.38,10.0,NNW,15.0,-,N/A,,Overcast,330,2013-12-29 16:53:00
11:53 AM,-2.9,-17.0,51,30.37,10.0,NNW,15.0,-,N/A,,Overcast,330,2013-12-29 17:53:00
12:53 PM,-2.0,-16.1,51,30.35,10.0,NW,16.1,-,N/A,,Clear,310,2013-12-29 18:53:00
1:53 PM,-2.0,-16.1,51,30.34,10.0,NW,11.5,-,N/A,,Clear,310,2013-12-29 19:53:00
2:53 PM,-2.0,-17.0,49,30.34,10.0,WNW,13.8,-,N/A,,Clear,300,2013-12-29 20:53:00
3:53 PM,-2.9,-18.0,49,30.35,10.0,WNW,12.7,-,N/A,,Clear,290,2013-12-29 21:53:00
4:53 PM,-5.1,-18.0,54,30.35,10.0,WNW,9.2,-,N/A,,Clear,300,2013-12-29 22:53:00
5:53 PM,-7.1,-18.9,56,30.34,10.0,NW,5.8,-,N/A,,Clear,310,2013-12-29 23:53:00
6:53 PM,-7.1,-18.9,56,30.36,10.0,West,5.8,-,N/A,,Clear,280,2013-12-30 00:53:00
7:53 PM,-9.0,-20.0,59,30.35,10.0,West,6.9,-,N/A,,Clear,280,2013-12-30 01:53:00
8:53 PM,-9.9,-20.0,61,30.36,10.0,WNW,5.8,-,N/A,,Clear,290,2013-12-30 02:53:00
9:53 PM,-9.9,-20.0,61,30.35,10.0,West,4.6,-,N/A,,Clear,280,2013-12-30 03:53:00
10:53 PM,-11.0,-20.0,64,30.35,10.0,Calm,Calm,-,N/A,,Clear,0,2013-12-30 04:53:00
11:53 PM,-11.9,-20.0,67,30.37,10.0,WSW,3.5,-,N/A,,Clear,250,2013-12-30 05:53:00